CPA525 VHHH-LCLK

Flight info

Callsign CPA525
Flight time N/A
Altitude 36100
Route BEKOL A461 SHL W22 TEPID W24 OSNOV G586 QP B330 ELKAL W179 LEBIV/K0909S1160 W179 RIRKI W232 WFX W179 OMBON Y1 SADAN W186 ISBEB/K0909S1220 W186 KAMUD/K0909F400 L141 TISIB L163 SR N193 OGOLI T898 DARVA/N0496F400 B476 METKA L88 RASAM N199 LUSAL M11 EDATA N161 INDUR UB374 ERZ UW701 GAZ/N0489F410 UB36 TUSYR/N0490F400 B544 ALE DCT LUBAM DCT SALIM DCT BAN R785 NIKAS M978 ALSUS M67 VOLBE
Aircraft A359/H-SDE2E3GHIJ3J4J5LM1ORWXY/LB1D1

Departure

Time N/A
Airport Hong Kong International Airport (VHHH)

Arrival

Time 2026-04-30 20:44
Airport Larnaca International Airport (LCLK)
Time Latitude Longitude Altitude Speed Heading
2026-04-30 20:04 36.83853 37.43870 40045 ft 469 kts 196°
2026-04-30 20:05 36.74300 37.41179 40041 ft 469 kts 196°
2026-04-30 20:05 36.64816 37.38365 40047 ft 469 kts 198°
2026-04-30 20:06 36.58565 37.36103 40040 ft 467 kts 201°
2026-04-30 20:06 36.52378 37.33619 40041 ft 467 kts 201°
2026-04-30 20:07 36.46175 37.31175 40041 ft 467 kts 200°
2026-04-30 20:08 36.36827 37.27631 40050 ft 468 kts 199°
2026-04-30 20:08 36.30567 37.25404 40044 ft 468 kts 199°
2026-04-30 20:09 36.24306 37.23191 40041 ft 468 kts 199°
2026-04-30 20:09 36.15779 37.17728 40040 ft 458 kts 223°
2026-04-30 20:10 36.09092 37.09327 40042 ft 457 kts 229°
2026-04-30 20:11 36.02673 37.00677 40051 ft 457 kts 229°
2026-04-30 20:11 35.98347 36.94921 40037 ft 457 kts 229°
2026-04-30 20:12 35.91839 36.86336 40030 ft 456 kts 229°
2026-04-30 20:13 35.87501 36.80630 40034 ft 456 kts 229°
2026-04-30 20:13 35.83164 36.74930 40029 ft 456 kts 229°
2026-04-30 20:14 35.78820 36.69232 40009 ft 456 kts 229°
2026-04-30 20:14 35.74502 36.63576 40008 ft 456 kts 229°
2026-04-30 20:15 35.70152 36.57890 40007 ft 456 kts 229°
2026-04-30 20:15 35.65800 36.52209 40008 ft 456 kts 229°
2026-04-30 20:16 35.61436 36.46521 40008 ft 457 kts 229°
2026-04-30 20:16 35.57070 36.40839 40008 ft 457 kts 229°
2026-04-30 20:17 35.52737 36.35209 40007 ft 457 kts 229°
2026-04-30 20:17 35.48369 36.29544 40008 ft 456 kts 229°
2026-04-30 20:18 35.44052 36.23844 40002 ft 456 kts 229°
2026-04-30 20:18 35.39755 36.18122 40002 ft 456 kts 229°
2026-04-30 20:19 35.35447 36.12412 39995 ft 456 kts 229°
2026-04-30 20:19 35.31130 36.06715 39999 ft 456 kts 229°
2026-04-30 20:20 35.26855 36.01051 39997 ft 455 kts 231°
2026-04-30 20:20 35.23386 35.94639 39998 ft 451 kts 246°
2026-04-30 20:21 35.21519 35.87346 39997 ft 450 kts 258°
2026-04-30 20:21 35.20906 35.83619 39533 ft 446 kts 259°
2026-04-30 20:21 35.20351 35.79881 38676 ft 449 kts 260°
2026-04-30 20:21 35.19840 35.76097 37823 ft 452 kts 261°
2026-04-30 20:22 35.19348 35.72296 37070 ft 452 kts 261°
2026-04-30 20:22 35.18853 35.68508 36357 ft 451 kts 261°
2026-04-30 20:22 35.18333 35.64731 35632 ft 451 kts 260°
2026-04-30 20:22 35.17793 35.60951 34884 ft 451 kts 260°
2026-04-30 20:23 35.17242 35.57171 34034 ft 453 kts 259°
2026-04-30 20:23 35.16680 35.53358 33172 ft 456 kts 259°
2026-04-30 20:23 35.16116 35.49539 32277 ft 459 kts 259°
2026-04-30 20:23 35.15547 35.45685 31351 ft 462 kts 259°
2026-04-30 20:24 35.14975 35.41813 30398 ft 465 kts 259°
2026-04-30 20:24 35.14398 35.37910 29497 ft 467 kts 259°
2026-04-30 20:24 35.13822 35.34013 28748 ft 465 kts 259°
2026-04-30 20:24 35.13247 35.30137 28028 ft 463 kts 259°
2026-04-30 20:25 35.12111 35.22489 26616 ft 457 kts 259°
2026-04-30 20:25 35.11543 35.18684 25892 ft 454 kts 259°
2026-04-30 20:26 35.10414 35.11138 24476 ft 448 kts 259°
2026-04-30 20:26 35.09487 35.04967 23316 ft 442 kts 259°
2026-04-30 20:26 35.08933 35.01291 22617 ft 438 kts 259°
2026-04-30 20:27 35.07836 34.94042 21231 ft 430 kts 259°
2026-04-30 20:27 35.06756 34.86929 19830 ft 422 kts 259°
2026-04-30 20:28 35.05691 34.79943 18421 ft 415 kts 258°
2026-04-30 20:28 35.04641 34.73084 17009 ft 407 kts 258°
2026-04-30 20:29 35.03322 34.66440 15616 ft 398 kts 246°
2026-04-30 20:30 34.98869 34.58177 13534 ft 385 kts 231°
2026-04-30 20:30 34.93919 34.50659 11685 ft 364 kts 230°
2026-04-30 20:31 34.89845 34.44392 11392 ft 274 kts 230°
2026-04-30 20:32 34.86349 34.38984 11044 ft 270 kts 230°
2026-04-30 20:32 34.84025 34.35390 10644 ft 269 kts 230°
2026-04-30 20:33 34.82884 34.33623 10301 ft 268 kts 230°
2026-04-30 20:33 34.81133 34.29606 9695 ft 285 kts 257°
2026-04-30 20:33 34.81162 34.27161 9536 ft 294 kts 281°
2026-04-30 20:34 34.82614 34.22565 8536 ft 295 kts 292°
2026-04-30 20:34 34.84250 34.18019 7781 ft 291 kts 292°
2026-04-30 20:35 34.85050 34.15765 7411 ft 289 kts 292°
2026-04-30 20:35 34.85843 34.13521 7057 ft 287 kts 292°
2026-04-30 20:35 34.87407 34.09071 6348 ft 284 kts 292°
2026-04-30 20:36 34.88180 34.06868 6001 ft 282 kts 292°
2026-04-30 20:36 34.88947 34.04677 5655 ft 280 kts 292°
2026-04-30 20:36 34.90462 34.00343 4972 ft 276 kts 292°
2026-04-30 20:37 34.91203 33.98225 4660 ft 274 kts 292°
2026-04-30 20:37 34.91946 33.96099 4344 ft 272 kts 293°
2026-04-30 20:37 34.92683 33.93986 4056 ft 270 kts 293°
2026-04-30 20:37 34.93349 33.91855 3774 ft 268 kts 289°
2026-04-30 20:38 34.93948 33.89749 3519 ft 253 kts 289°
2026-04-30 20:38 34.94505 33.87798 3275 ft 235 kts 290°
2026-04-30 20:38 34.95031 33.85980 3105 ft 221 kts 290°
2026-04-30 20:39 34.96005 33.82636 2912 ft 195 kts 290°
2026-04-30 20:39 34.96431 33.81120 2804 ft 183 kts 289°
2026-04-30 20:39 34.96814 33.79694 2686 ft 170 kts 289°
2026-04-30 20:40 34.97495 33.77160 2440 ft 146 kts 289°
2026-04-30 20:40 34.97672 33.75961 2362 ft 145 kts 270°
2026-04-30 20:40 34.97347 33.74821 2309 ft 141 kts 243°
2026-04-30 20:41 34.96092 33.72994 2047 ft 142 kts 225°
2026-04-30 20:41 34.95391 33.72158 1866 ft 141 kts 226°
2026-04-30 20:41 34.94712 33.71327 1697 ft 140 kts 226°
2026-04-30 20:41 34.94026 33.70490 1516 ft 139 kts 226°
2026-04-30 20:42 34.93341 33.69655 1356 ft 139 kts 226°
2026-04-30 20:42 34.92660 33.68825 1180 ft 139 kts 226°
2026-04-30 20:42 34.91292 33.67159 832 ft 138 kts 226°
2026-04-30 20:43 34.90614 33.66333 670 ft 138 kts 226°
2026-04-30 20:43 34.89936 33.65508 509 ft 137 kts 226°
2026-04-30 20:43 34.89263 33.64687 353 ft 137 kts 226°
2026-04-30 20:44 34.87921 33.63061 29 ft 131 kts 226°
2026-04-30 20:44 34.87357 33.62371 24 ft 99 kts 225°
2026-04-30 20:44 34.87026 33.61943 27 ft 16 kts 241°
2026-04-30 20:45 34.86945 33.61680 26 ft 19 kts 255°
2026-04-30 20:45 34.86909 33.61511 28 ft 21 kts 255°
2026-04-30 20:45 34.86898 33.61375 27 ft 16 kts 294°
2026-04-30 20:46 34.86983 33.61189 27 ft 6 kts 227°
2026-04-30 20:46 34.86956 33.61152 27 ft 4 kts 229°
2026-04-30 20:47 34.86952 33.61145 27 ft 0 kts 229°